Other Surface Observations
Issued by NWS

Home | Current Version | Previous Version | Text Only | Print | Product List | Glossary On
Versions: 1 2 3 4 5 6 7 8 9 10 11 12 13 14 15 16 17 18 19 20 21 22 23 24 25 26 27 28 29 30 31 32 33 34 35 36 37 38 39 40 41 42 43 44 45 46 47 48 49 50
000
SXUS52 KTAE 260819
OSOTAE
OSOTAE
North Florida/South Alabama/Southwest Georgia Weather Roundup
National Weather Service Tallahassee Florida
400 AM EDT MON JUN 26 2017

Note: "fair" indicates few or no clouds below 12,000 feet with no
significant weather and/or obstructions to visibility.

!FLZ017-115-028-034-025-260900
...North Florida...

CITY           SKY/WX    TMP DP  RH WIND       PRES   REMARKS
TALLAHASSEE    CLOUDY    75  74  96 N5        30.07S
APALACHICOLA   PTCLDY    75  75 100 CALM      30.06F
PERRY          CLOUDY    76  74  95 CALM      30.07S
CROSS CITY     MOCLDY    73  72  94 CALM      30.06S
JACKSONVILLE   MOCLDY    75  75 100 SW3       30.05S
$$

!FLZ112-006-005-002-011-260900
...Florida Panhandle...

CITY           SKY/WX    TMP DP  RH WIND       PRES   REMARKS
MARIANNA       CLOUDY    71  68  90 CALM      30.08F
BONIFAY        NOT AVBL
PANAMA CITY NW FAIR      73  70  90 NW5       30.08R
TYNDALL AFB    CLOUDY    76  72  89 N6        30.07F
TYND DRONE APT PTSUNNY   75  73  92 N10       30.07F
DE FUNIAK SPR  FAIR      69  64  82 N3        30.10F
EGLIN AFB      PTCLDY    71  65  82 N6        30.08F
DESTIN         CLOUDY    77  73  87 NE8       30.08F
HURLBURT       PTCLDY    71  62  71 N5        30.07F
CRESTVIEW      CLEAR     67  62  84 N3        30.11F
PENSACOLA      CLEAR     74  60  61 N8        30.09F
$$

!ALZ063-066-260900
...South Alabama...

CITY           SKY/WX    TMP DP  RH WIND       PRES   REMARKS
DOTHAN         MOCLDY    68  63  84 N5        30.13F
OZARK CAIRNS   PTCLDY    69  61  75 N6        30.10F
FT RUCKER HELI PTCLDY    64  63  96 CALM      30.10F
RUCKER HELI 3  FAIR      67  63  87 NE5       30.10F
RUCKER HELI 2  FAIR      67  62  83 N3        30.10F
FLORALA APT    CLOUDY    66  62  87 VRB3      30.12F
ANDALUSIA      CLEAR     68  61  78 CALM      30.11F
TROY           CLEAR     63  63 100 CALM      30.13S
EUFALA         FAIR      63  61  93 NW5       30.10F
MOBILE         CLEAR     71  65  81 NE6       30.12S
$$

!GAZ120>161-260900
...Southwest and South Central Georgia...

CITY           SKY/WX    TMP DP  RH WIND       PRES   REMARKS
THOMASVILLE    FAIR      73  73 100 N5        30.09F
BAINBRIDGE     CLOUDY    77  70  78 CALM      30.08F
MOODY AFB      CLOUDY    73  73 100 NW3       30.06  FOG
VALDOSTA       CLOUDY    73  73 100 CALM      30.06F
MOULTRIE       CLOUDY    72  70  94 N3        30.09S
BLAKELY        CLEAR     68  63  83 CALM      30.10S
ALBANY         CLEAR     70  62  76 CALM      30.11S
TIFTON         FAIR      71  70  96 CALM      30.08F
FITZGERALD     CLOUDY    72  69  89 CALM      30.10F
CORDELE        FAIR      70  67  88 CALM      30.10F
AMERICUS       FAIR      66  57  72 N3        30.12F
HOMERVILLE     FAIR      73  73 100 CALM      30.07F
$$

!GMZ750-755-770-775-260900
...Coastal and Buoy Obs...

STATION/POSITION TIME  TEMP    WIND        PRES    VSBY  WAVE
                       AIR SEA DIR/SP/G                  HT/PER
                 (UTC) (F)     (DEG/KT/KT) (MB)    (MI)  (FT/S)
KEATON BEACH     0800   76      70/  4/  5 1017.5R
CEDAR KEY        0800   80      30/  3/  4 1018.0F
C TOWER          0800   78     360/  5/  6 1018.4F
APALACHICOLA BUO 0750   82 83  280/  2/  4 1017.8F         1/ 6
PANAMA CITY BUOY 0750   80 83   30/  2/  4 1017.7F         2/ 7
MOBILE BUOY      0800   80 84  110/ 16/ 21 1018.4
ORANGE BCH AL BU 0750   79 82   50/ 14/ 16 1018.2F         2/ 4
$$




USA.gov is the U.S. government's official web portal to all federal, state and local government web resources and services.